| time (UTC) | temp C | wind direction | speed KPH | gust KPH | rain 1hr cm | rain 24hr cm | rain mn cm | humidity % | barometer mb |
| 20260502184606 | 3 | 152 | 8.0 | 22.5 | 0.00 | 0.00 | 0.00 | 75 | 965.4 |
| 20260502184036 | 3 | 214 | 9.7 | 22.5 | 0.00 | 0.00 | 0.00 | 76 | 965.6 |
| 20260502183536 | 3 | 123 | 9.7 | 22.5 | 0.00 | 0.00 | 0.00 | 77 | 965.4 |
| 20260502183006 | 3 | 168 | 8.0 | 19.3 | 0.00 | 0.00 | 0.00 | 78 | 965.4 |
| 20260502182436 | 3 | 149 | 9.7 | 27.4 | 0.00 | 0.00 | 0.00 | 78 | 965.4 |
| 20260502181936 | 3 | 165 | 9.7 | 27.4 | 0.00 | 0.00 | 0.00 | 78 | 965.4 |
| 20260502181406 | 3 | 195 | 9.7 | 27.4 | 0.00 | 0.00 | 0.00 | 78 | 965.3 |
| 20260502180906 | 3 | 145 | 9.7 | 25.7 | 0.00 | 0.00 | 0.00 | 77 | 965.3 |
| 20260502180406 | 3 | 168 | 9.7 | 29.0 | 0.00 | 0.00 | 0.00 | 79 | 965.6 |
| 20260502170336 | 3 | 178 | 11.3 | 24.1 | 0.00 | 0.00 | 0.00 | 77 | 965.4 |
| 20260502164306 | 4 | 197 | 11.3 | 27.4 | 0.00 | 0.00 | 0.00 | 78 | 965.2 |
| 20260502163806 | 4 | 171 | 11.3 | 30.6 | 0.00 | 0.00 | 0.00 | 80 | 965.1 |
| 20260502163236 | 4 | 186 | 12.9 | 30.6 | 0.00 | 0.00 | 0.00 | 80 | 965.2 |
| 20260502162736 | 4 | 186 | 14.5 | 33.8 | 0.00 | 0.00 | 0.00 | 81 | 965.2 |
| 20260502162235 | 4 | 188 | 12.9 | 33.8 | 0.00 | 0.00 | 0.00 | 82 | 965.1 |
| 20260502161705 | 5 | 165 | 12.9 | 33.8 | 0.00 | 0.00 | 0.00 | 83 | 965.1 |
| 20260502161205 | 5 | 172 | 12.9 | 29.0 | 0.00 | 0.00 | 0.00 | 84 | 965.0 |
| 20260502160635 | 5 | 207 | 12.9 | 29.0 | 0.00 | 0.00 | 0.00 | 86 | 965.1 |
| 20260502160106 | 5 | 198 | 11.3 | 27.4 | 0.00 | 0.00 | 0.00 | 86 | 965.0 |
| 20260502152035 | 5 | 181 | 8.0 | 22.5 | 0.00 | 0.00 | 0.00 | 89 | 965.1 |
| 20260502151535 | 5 | 202 | 9.7 | 27.4 | 0.00 | 0.00 | 0.00 | 89 | 965.1 |
| 20260502151035 | 5 | 189 | 9.7 | 27.4 | 0.00 | 0.00 | 0.00 | 89 | 965.4 |
| 20260502150505 | 5 | 173 | 9.7 | 24.1 | 0.00 | 0.00 | 0.00 | 90 | 965.4 |
| 20260502130434 | 7 | 226 | 9.7 | 19.3 | 0.00 | 0.00 | 0.00 | 91 | 964.9 |
| 20260502123404 | 8 | 18 | 4.8 | 20.9 | 0.00 | 0.00 | 0.00 | 75 | 964.9 |
| 20260502122904 | 8 | 99 | 4.8 | 20.9 | 0.00 | 0.00 | 0.00 | 75 | 964.9 |
| 20260502122404 | 8 | 113 | 3.2 | 16.1 | 0.00 | 0.00 | 0.00 | 74 | 964.9 |
| 20260502121904 | 8 | 119 | 1.6 | 12.9 | 0.00 | 0.00 | 0.00 | 72 | 965.0 |
| 20260502121404 | 9 | 35 | 1.6 | 9.7 | 0.00 | 0.00 | 0.00 | 71 | 964.9 |
| 20260502120904 | 9 | 300 | 1.6 | 9.7 | 0.00 | 0.00 | 0.00 | 72 | 965.0 |
| 20260502120404 | 9 | 92 | 1.6 | 12.9 | 0.00 | 0.00 | 0.00 | 72 | 965.0 |
| 20260502115904 | 9 | 105 | 3.2 | 12.9 | 0.00 | 0.00 | 0.00 | 70 | 965.0 |
| 20260502115404 | 9 | 47 | 3.2 | 17.7 | 0.00 | 0.00 | 0.00 | 71 | 965.0 |
| 20260502114904 | 9 | 76 | 4.8 | 17.7 | 0.00 | 0.00 | 0.00 | 71 | 964.9 |
| 20260502114404 | 9 | 153 | 4.8 | 17.7 | 0.00 | 0.00 | 0.00 | 70 | 964.9 |
| 20260502113904 | 9 | 29 | 4.8 | 17.7 | 0.00 | 0.00 | 0.00 | 70 | 964.9 |
| 20260502113334 | 9 | 37 | 4.8 | 17.7 | 0.00 | 0.00 | 0.00 | 69 | 964.9 |
| 20260502112834 | 10 | 78 | 4.8 | 16.1 | 0.00 | 0.00 | 0.00 | 68 | 964.8 |
| 20260502112334 | 10 | 113 | 4.8 | 24.1 | 0.00 | 0.00 | 0.00 | 68 | 964.8 |
| 20260502111834 | 10 | 136 | 4.8 | 24.1 | 0.00 | 0.00 | 0.00 | 67 | 964.6 |
| 20260502111334 | 10 | 260 | 6.4 | 19.3 | 0.00 | 0.00 | 0.00 | 67 | 964.5 |
| 20260502110834 | 10 | 110 | 6.4 | 20.9 | 0.00 | 0.00 | 0.00 | 67 | 964.6 |
| 20260502110304 | 10 | 356 | 6.4 | 20.9 | 0.00 | 0.00 | 0.00 | 66 | 964.6 |
| 20260502105734 | 10 | 103 | 4.8 | 17.7 | 0.00 | 0.00 | 0.00 | 65 | 964.6 |
| 20260502105234 | 11 | 75 | 4.8 | 16.1 | 0.00 | 0.00 | 0.00 | 64 | 964.7 |
| 20260502104704 | 11 | 349 | 4.8 | 14.5 | 0.00 | 0.00 | 0.00 | 64 | 964.7 |
| 20260502104204 | 11 | 101 | 4.8 | 14.5 | 0.00 | 0.00 | 0.00 | 63 | 964.7 |
| 20260502103704 | 11 | 109 | 3.2 | 14.5 | 0.00 | 0.00 | 0.00 | 62 | 964.8 |
| 20260502103204 | 11 | 173 | 3.2 | 16.1 | 0.00 | 0.00 | 0.00 | 64 | 964.6 |
| 20260502102634 | 11 | 174 | 1.6 | 16.1 | 0.00 | 0.00 | 0.00 | 62 | 964.6 |
| 20260502102134 | 11 | 165 | 3.2 | 12.9 | 0.00 | 0.00 | 0.00 | 62 | 964.7 |
| 20260502101634 | 11 | 143 | 3.2 | 12.9 | 0.00 | 0.00 | 0.00 | 62 | 964.8 |
| 20260502101104 | 11 | 126 | 3.2 | 12.9 | 0.00 | 0.00 | 0.00 | 61 | 964.6 |
| 20260502100603 | 12 | 46 | 1.6 | 8.0 | 0.00 | 0.00 | 0.00 | 60 | 964.8 |
| 20260502091433 | 12 | 103 | 1.6 | 6.4 | 0.00 | 0.00 | 0.00 | 61 | 964.8 |
| 20260502090933 | 12 | 113 | 1.6 | 6.4 | 0.00 | 0.00 | 0.00 | 60 | 964.8 |
| 20260502090433 | 12 | 117 | 3.2 | 9.7 | 0.00 | 0.00 | 0.00 | 61 | 964.8 |
| 20260502071133 | 11 | 145 | 3.2 | 9.7 | 0.00 | 0.00 | 0.00 | 63 | 964.9 |
| 20260502070633 | 11 | 105 | 3.2 | 9.7 | 0.00 | 0.00 | 0.00 | 62 | 964.8 |
| 20260502070133 | 11 | 141 | 3.2 | 8.0 | 0.00 | 0.00 | 0.00 | 62 | 964.9 |
| 20260502065603 | 12 | 233 | 3.2 | 8.0 | 0.00 | 0.00 | 0.00 | 61 | 964.9 |
| 20260502065102 | 12 | 118 | 1.6 | 6.4 | 0.00 | 0.00 | 0.00 | 61 | 964.9 |
| 20260502064532 | 11 | 99 | 1.6 | 6.4 | 0.00 | 0.00 | 0.00 | 62 | 964.9 |
| 20260502064032 | 10 | 349 | 1.6 | 8.0 | 0.00 | 0.00 | 0.00 | 64 | 964.9 |
| 20260502063532 | 11 | 21 | 1.6 | 8.0 | 0.00 | 0.00 | 0.00 | 63 | 964.8 |
| 20260502063032 | 11 | 124 | 3.2 | 8.0 | 0.00 | 0.00 | 0.00 | 65 | 964.7 |
| 20260502062502 | 10 | 108 | 1.6 | 8.0 | 0.00 | 0.00 | 0.00 | 65 | 964.8 |
| 20260502061932 | 10 | 162 | 1.6 | 8.0 | 0.00 | 0.00 | 0.00 | 67 | 964.8 |
| 20260502061432 | 10 | 173 | 1.6 | 9.7 | 0.00 | 0.00 | 0.00 | 69 | 964.8 |
| 20260502060932 | 9 | 9 | 1.6 | 9.7 | 0.00 | 0.00 | 0.00 | 68 | 964.7 |
| 20260502060432 | 9 | 134 | 3.2 | 8.0 | 0.00 | 0.00 | 0.00 | 70 | 964.9 |
| 20260502055932 | 9 | 40 | 3.2 | 12.9 | 0.00 | 0.00 | 0.00 | 70 | 964.8 |
| 20260502055432 | 8 | 156 | 3.2 | 14.5 | 0.00 | 0.00 | 0.00 | 71 | 964.8 |
| 20260502054932 | 8 | 89 | 3.2 | 14.5 | 0.00 | 0.00 | 0.00 | 70 | 964.9 |
| 20260502054432 | 9 | 187 | 3.2 | 14.5 | 0.00 | 0.00 | 0.00 | 68 | 964.7 |
| 20260502053932 | 9 | 84 | 4.8 | 14.5 | 0.00 | 0.00 | 0.00 | 69 | 964.6 |
| 20260502053432 | 9 | 164 | 4.8 | 16.1 | 0.00 | 0.00 | 0.00 | 67 | 965.0 |
| 20260502052932 | 7 | 166 | 3.2 | 16.1 | 0.00 | 0.00 | 0.00 | 71 | 964.7 |
| 20260502052402 | 7 | 127 | 3.2 | 11.3 | 0.00 | 0.00 | 0.00 | 72 | 964.7 |
| 20260502051902 | 7 | 201 | 1.6 | 9.7 | 0.00 | 0.00 | 0.00 | 72 | 964.5 |
| 20260502051332 | 7 | 155 | 1.6 | 9.7 | 0.00 | 0.00 | 0.00 | 74 | 964.5 |
| 20260502050832 | 7 | 107 | 1.6 | 6.4 | 0.00 | 0.00 | 0.00 | 75 | 964.5 |
| 20260502050332 | 7 | 108 | 1.6 | 8.0 | 0.00 | 0.00 | 0.00 | 76 | 964.8 |
| 20260502045802 | 6 | 119 | 3.2 | 11.3 | 0.00 | 0.00 | 0.00 | 77 | 964.8 |
| 20260502045305 | 6 | 86 | 3.2 | 12.9 | 0.00 | 0.00 | 0.00 | 75 | 964.8 |
| 20260502044802 | 6 | 218 | 3.2 | 12.9 | 0.00 | 0.00 | 0.00 | 74 | 964.7 |
| 20260502044302 | 6 | 183 | 1.6 | 9.7 | 0.00 | 0.00 | 0.00 | 75 | 964.7 |
| 20260502043802 | 6 | 344 | 1.6 | 9.7 | 0.00 | 0.00 | 0.00 | 75 | 964.9 |
| 20260502043302 | 6 | 55 | 1.6 | 9.7 | 0.00 | 0.00 | 0.00 | 74 | 964.8 |
| 20260502042802 | 6 | 103 | 1.6 | 9.7 | 0.00 | 0.00 | 0.00 | 74 | 965.0 |
| 20260502042305 | 7 | 282 | 1.6 | 8.0 | 0.00 | 0.00 | 0.00 | 75 | 964.9 |
| 20260502041802 | 6 | 212 | 1.6 | 8.0 | 0.00 | 0.00 | 0.00 | 76 | 965.0 |
| 20260502041302 | 7 | 201 | 1.6 | 6.4 | 0.00 | 0.00 | 0.00 | 75 | 964.7 |
| 20260502040802 | 7 | 272 | 1.6 | 4.8 | 0.00 | 0.00 | 0.00 | 73 | 964.6 |
| 20260502040302 | 7 | 19 | 3.2 | 4.8 | 0.00 | 0.00 | 0.00 | 72 | 964.6 |
| 20260502035802 | 7 | 80 | 1.6 | 4.8 | 0.00 | 0.00 | 0.00 | 70 | 964.7 |
| 20260502035232 | 7 | 191 | 0.0 | 4.8 | 0.00 | 0.00 | 0.00 | 71 | 964.7 |
| 20260502034732 | 7 | 156 | 1.6 | 4.8 | 0.00 | 0.00 | 0.00 | 71 | 964.9 |
| 20260502034202 | 7 | 234 | 1.6 | 4.8 | 0.00 | 0.00 | 0.00 | 70 | 964.9 |
| 20260502033702 | 7 | 200 | 1.6 | 4.8 | 0.00 | 0.00 | 0.00 | 69 | 965.0 |
| 20260502033202 | 7 | 214 | 0.0 | 3.2 | 0.00 | 0.00 | 0.00 | 72 | 965.1 |
| 20260502032702 | 7 | 235 | 1.6 | 4.8 | 0.00 | 0.00 | 0.00 | 71 | 965.2 |
| 20260502032202 | 6 | 182 | 1.6 | 8.0 | 0.00 | 0.00 | 0.00 | 74 | 965.3 |
| 20260502031632 | 6 | 168 | 1.6 | 8.0 | 0.00 | 0.00 | 0.00 | 75 | 965.2 |
| 20260502031102 | 5 | 122 | 1.6 | 4.8 | 0.00 | 0.00 | 0.00 | 75 | 965.3 |
| 20260502030601 | 5 | 87 | 1.6 | 4.8 | 0.00 | 0.00 | 0.00 | 75 | 965.4 |
| 20260502025601 | 5 | 350 | 1.6 | 8.0 | 0.00 | 0.00 | 0.00 | 72 | 965.6 |
| 20260502025101 | 6 | 343 | 1.6 | 8.0 | 0.00 | 0.00 | 0.00 | 71 | 965.5 |
| 20260502024601 | 6 | 166 | 1.6 | 6.4 | 0.00 | 0.00 | 0.00 | 70 | 965.3 |
| 20260502024101 | 6 | 358 | 1.6 | 4.8 | 0.00 | 0.00 | 0.00 | 70 | 965.4 |
| 20260502023531 | 7 | 305 | 1.6 | 4.8 | 0.00 | 0.00 | 0.00 | 70 | 965.3 |
| 20260502023031 | 7 | 57 | 1.6 | 4.8 | 0.00 | 0.00 | 0.00 | 70 | 965.4 |
| 20260502022531 | 7 | 197 | 3.2 | 4.8 | 0.00 | 0.00 | 0.00 | 70 | 965.3 |
| 20260502022031 | 7 | 226 | 3.2 | 4.8 | 0.00 | 0.00 | 0.00 | 69 | 965.3 |
| 20260502021531 | 7 | 200 | 4.8 | 6.4 | 0.00 | 0.00 | 0.00 | 69 | 965.4 |
| 20260502021001 | 7 | 199 | 6.4 | 8.0 | 0.00 | 0.00 | 0.00 | 68 | 965.4 |
| 20260502020501 | 7 | 202 | 6.4 | 9.7 | 0.00 | 0.00 | 0.00 | 68 | 965.5 |
| 20260502015931 | 7 | 194 | 6.4 | 9.7 | 0.00 | 0.00 | 0.00 | 68 | 965.6 |
| 20260502015431 | 7 | 190 | 4.8 | 9.7 | 0.00 | 0.00 | 0.00 | 68 | 965.6 |
| 20260502014931 | 7 | 197 | 4.8 | 9.7 | 0.00 | 0.00 | 0.00 | 68 | 965.5 |
| 20260502014431 | 7 | 221 | 6.4 | 9.7 | 0.00 | 0.00 | 0.00 | 67 | 965.5 |
| 20260502013931 | 7 | 199 | 4.8 | 9.7 | 0.00 | 0.00 | 0.00 | 68 | 965.7 |
| 20260502013401 | 7 | 201 | 4.8 | 12.9 | 0.00 | 0.00 | 0.00 | 68 | 965.6 |
| 20260502012831 | 7 | 204 | 6.4 | 12.9 | 0.00 | 0.00 | 0.00 | 68 | 965.7 |
| 20260502012331 | 7 | 195 | 6.4 | 8.0 | 0.00 | 0.00 | 0.00 | 68 | 965.6 |
| 20260502011831 | 7 | 196 | 4.8 | 8.0 | 0.00 | 0.00 | 0.00 | 69 | 965.6 |
| 20260502011331 | 7 | 199 | 4.8 | 9.7 | 0.00 | 0.00 | 0.00 | 69 | 965.6 |
| 20260502010801 | 7 | 208 | 6.4 | 11.3 | 0.00 | 0.00 | 0.00 | 69 | 965.8 |
| 20260502010231 | 7 | 205 | 6.4 | 11.3 | 0.00 | 0.00 | 0.00 | 69 | 965.9 |
| 20260502005701 | 7 | 199 | 6.4 | 11.3 | 0.00 | 0.00 | 0.00 | 70 | 965.8 |
| 20260502005201 | 7 | 190 | 4.8 | 9.7 | 0.00 | 0.00 | 0.00 | 70 | 965.7 |
| 20260502004631 | 6 | 192 | 1.6 | 8.0 | 0.00 | 0.00 | 0.00 | 71 | 965.8 |
| 20260502004131 | 6 | 321 | 1.6 | 6.4 | 0.00 | 0.00 | 0.00 | 70 | 966.0 |
| 20260502003631 | 7 | 287 | 3.2 | 8.0 | 0.00 | 0.00 | 0.00 | 70 | 966.0 |
| 20260502003131 | 7 | 179 | 3.2 | 8.0 | 0.00 | 0.00 | 0.00 | 69 | 965.9 |
| 20260502002631 | 7 | 354 | 1.6 | 6.4 | 0.00 | 0.00 | 0.00 | 70 | 965.9 |
| 20260502002131 | 7 | 182 | 1.6 | 4.8 | 0.00 | 0.00 | 0.00 | 70 | 965.7 |
| 20260502001631 | 6 | 230 | 1.6 | 3.2 | 0.00 | 0.00 | 0.00 | 71 | 965.7 |
| 20260502001101 | 6 | 281 | 1.6 | 3.2 | 0.00 | 0.00 | 0.00 | 70 | 965.6 |
| 20260502000601 | 7 | 219 | 1.6 | 4.8 | 0.00 | 0.00 | 0.00 | 69 | 965.9 |
| 20260502000100 | 7 | 19 | 1.6 | 4.8 | 0.00 | 0.00 | 0.00 | 68 | 966.0 |
| 20260501235601 | 7 | 69 | 0.0 | 3.2 | 0.00 | 0.00 | 0.00 | 68 | 966.1 |
| 20260501235100 | 7 | 124 | 0.0 | 3.2 | 0.00 | 0.00 | 0.00 | 68 | 966.2 |
| 20260501234600 | 7 | 189 | 1.6 | 3.2 | 0.00 | 0.00 | 0.00 | 67 | 966.1 |
| 20260501234100 | 7 | 215 | 1.6 | 4.8 | 0.00 | 0.00 | 0.00 | 66 | 966.2 |
| 20260501233530 | 8 | 104 | 1.6 | 6.4 | 0.00 | 0.00 | 0.00 | 66 | 966.3 |
| 20260501233030 | 8 | 322 | 3.2 | 6.4 | 0.00 | 0.00 | 0.00 | 65 | 966.3 |
| 20260501232530 | 8 | 192 | 3.2 | 6.4 | 0.00 | 0.00 | 0.00 | 65 | 966.4 |
| 20260501232030 | 8 | 113 | 3.2 | 8.0 | 0.00 | 0.00 | 0.00 | 65 | 966.5 |
| 20260501231530 | 8 | 197 | 3.2 | 8.0 | 0.00 | 0.00 | 0.00 | 65 | 966.4 |
| 20260501231030 | 8 | 191 | 1.6 | 6.4 | 0.00 | 0.00 | 0.00 | 65 | 966.4 |
| 20260501230500 | 8 | 182 | 1.6 | 6.4 | 0.00 | 0.00 | 0.00 | 65 | 966.5 |
| 20260501230000 | 8 | 53 | 3.2 | 8.0 | 0.00 | 0.00 | 0.00 | 64 | 966.5 |
| 20260501225500 | 8 | 252 | 4.8 | 9.7 | 0.00 | 0.00 | 0.00 | 64 | 966.4 |
| 20260501225000 | 8 | 237 | 4.8 | 9.7 | 0.00 | 0.00 | 0.00 | 63 | 966.5 |
| 20260501224500 | 8 | 217 | 4.8 | 9.7 | 0.00 | 0.00 | 0.00 | 63 | 966.7 |
| 20260501223930 | 8 | 247 | 4.8 | 9.7 | 0.00 | 0.00 | 0.00 | 63 | 966.8 |
| 20260501223430 | 8 | 237 | 4.8 | 9.7 | 0.00 | 0.00 | 0.00 | 63 | 967.0 |
| 20260501222930 | 8 | 249 | 4.8 | 9.7 | 0.00 | 0.00 | 0.00 | 63 | 966.9 |
| 20260501222430 | 8 | 248 | 4.8 | 11.3 | 0.00 | 0.00 | 0.00 | 62 | 966.7 |
| 20260501221900 | 9 | 235 | 4.8 | 11.3 | 0.00 | 0.00 | 0.00 | 61 | 966.9 |
| 20260501221400 | 10 | 223 | 4.8 | 11.3 | 0.00 | 0.00 | 0.00 | 60 | 966.8 |
| 20260501220830 | 10 | 256 | 4.8 | 9.7 | 0.00 | 0.00 | 0.00 | 57 | 966.9 |
| 20260501220330 | 10 | 246 | 4.8 | 11.3 | 0.00 | 0.00 | 0.00 | 55 | 966.8 |
| 20260501215830 | 10 | 288 | 3.2 | 11.3 | 0.00 | 0.00 | 0.00 | 53 | 966.9 |
| 20260501215300 | 10 | 190 | 3.2 | 14.5 | 0.00 | 0.00 | 0.00 | 50 | 966.9 |
| 20260501214730 | 10 | 108 | 3.2 | 14.5 | 0.00 | 0.00 | 0.00 | 50 | 966.9 |
| 20260501214200 | 11 | 359 | 3.2 | 9.7 | 0.00 | 0.00 | 0.00 | 49 | 966.9 |
| 20260501213700 | 11 | 88 | 3.2 | 9.7 | 0.00 | 0.00 | 0.00 | 48 | 966.8 |
| 20260501213130 | 11 | 84 | 3.2 | 9.7 | 0.00 | 0.00 | 0.00 | 47 | 966.7 |
| 20260501212630 | 11 | 185 | 1.6 | 8.0 | 0.00 | 0.00 | 0.00 | 47 | 966.8 |
| 20260501212100 | 11 | 56 | 1.6 | 6.4 | 0.00 | 0.00 | 0.00 | 47 | 966.9 |
| 20260501211600 | 11 | 16 | 1.6 | 4.8 | 0.00 | 0.00 | 0.00 | 47 | 967.1 |
| 20260501211100 | 11 | 153 | 1.6 | 4.8 | 0.00 | 0.00 | 0.00 | 46 | 967.2 |
| 20260501210600 | 11 | 345 | 1.6 | 8.0 | 0.00 | 0.00 | 0.00 | 45 | 967.1 |
| 20260501210030 | 12 | 88 | 3.2 | 16.1 | 0.00 | 0.00 | 0.00 | 45 | 967.3 |
| 20260501205530 | 12 | 76 | 3.2 | 16.1 | 0.00 | 0.00 | 0.00 | 45 | 967.3 |
| 20260501205030 | 11 | 184 | 1.6 | 9.7 | 0.00 | 0.00 | 0.00 | 45 | 967.3 |
| 20260501204500 | 11 | 136 | 1.6 | 9.7 | 0.00 | 0.00 | 0.00 | 46 | 967.3 |
| 20260501203959 | 11 | 169 | 1.6 | 9.7 | 0.00 | 0.00 | 0.00 | 46 | 967.3 |
| 20260501203500 | 12 | 75 | 1.6 | 9.7 | 0.00 | 0.00 | 0.00 | 45 | 967.3 |
| 20260501202959 | 12 | 322 | 3.2 | 9.7 | 0.00 | 0.00 | 0.00 | 45 | 967.2 |
| 20260501202459 | 12 | 190 | 3.2 | 8.0 | 0.00 | 0.00 | 0.00 | 44 | 967.2 |
| 20260501201959 | 12 | 177 | 1.6 | 6.4 | 0.00 | 0.00 | 0.00 | 44 | 967.2 |
| 20260501201459 | 12 | 192 | 0.0 | 3.2 | 0.00 | 0.00 | 0.00 | 44 | 967.4 |
| 20260501200959 | 12 | 173 | 1.6 | 11.3 | 0.00 | 0.00 | 0.00 | 44 | 967.4 |
| 20260501200459 | 12 | 46 | 4.8 | 16.1 | 0.00 | 0.00 | 0.00 | 44 | 967.5 |
| 20260501195959 | 12 | 126 | 4.8 | 16.1 | 0.00 | 0.00 | 0.00 | 42 | 967.5 |
| 20260501195429 | 12 | 226 | 6.4 | 16.1 | 0.00 | 0.00 | 0.00 | 41 | 967.5 |
| 20260501194929 | 12 | 125 | 4.8 | 17.7 | 0.00 | 0.00 | 0.00 | 41 | 967.3 |
| 20260501194429 | 12 | 148 | 3.2 | 17.7 | 0.00 | 0.00 | 0.00 | 42 | 967.6 |
| 20260501193929 | 12 | 175 | 1.6 | 6.4 | 0.00 | 0.00 | 0.00 | 43 | 967.7 |
| 20260501193429 | 12 | 195 | 1.6 | 4.8 | 0.00 | 0.00 | 0.00 | 43 | 967.6 |
| 20260501192929 | 12 | 224 | 0.0 | 3.2 | 0.00 | 0.00 | 0.00 | 45 | 967.7 |
| 20260501192359 | 12 | 196 | 1.6 | 6.4 | 0.00 | 0.00 | 0.00 | 45 | 967.8 |
| 20260501191859 | 12 | 246 | 3.2 | 8.0 | 0.00 | 0.00 | 0.00 | 44 | 967.8 |
| 20260501191359 | 12 | 35 | 3.2 | 8.0 | 0.00 | 0.00 | 0.00 | 43 | 967.9 |
| 20260501190829 | 13 | 52 | 1.6 | 8.0 | 0.00 | 0.00 | 0.00 | 41 | 967.9 |
| 20260501190329 | 13 | 34 | 1.6 | 11.3 | 0.00 | 0.00 | 0.00 | 41 | 967.8 |
| 20260501185829 | 13 | 3 | 1.6 | 11.3 | 0.00 | 0.00 | 0.00 | 41 | 967.8 |
| 20260501185259 | 13 | 4 | 3.2 | 9.7 | 0.00 | 0.00 | 0.00 | 40 | 967.8 |
| 20260501184759 | 13 | 147 | 3.2 | 9.7 | 0.00 | 0.00 | 0.00 | 41 | 967.8 |